SCP
0 0 0 0 0 0 -0 -0 0 0 0 0 0 0 0 -0 0 0 0 0 0 0
0 0 0 0 0 0 0 -0 0 0 0 0 0 0 0 0 0 -0 0 0 0 0
0 0 0 0 0 0 0 0 0 0 0 0 0 0 0 0 0 0 0 0 0 0
0 0 0 0 0 0 0 0 0 0 0 0 0 0 0 0 0 0 0 0 0 0
-0 0 0 0 0 0 0 0 0 0 0 0 0 0 0 0 0 0 0 0 0 0
-0 -0 0 0 0 0 0 0 0 0 0 0 0 0 0 0 0 0 0 0 0 0
0 -0 0 0 0 0 0 0 0 0 0 0 0 0 0 0 0 0 0 0 0 0
0 0 0 0 0 0 0 0 0 0 0 0 0 0 0 0 0 0 0 0 0 0
0 0 0 0 0 0 0 0 0 0 0 0 0 0 0 0 0 0 0 0 0 0
0 0 0 0 0 0 0 0 0 0 0 0 0 0 0 0 0 0 0 0 0 0
0 0 0 0 0 0 0 0 0 0 0 0 0 0 0 0 0 0 0 0 0 0
0 0 0 0 0 0 0 0 0 0 0 0 0 0 0 0 0 0 0 0 0 0
0 0 0 0 0 0 0 0 0 -0 -0 -0 -0 -0 0 0 0 0 0 0 0 0
0 0 0 0 0 0 0 0 0 -0 -0 -0 -0 -0 0 0 -0 -0 0 0 0 0
Wind_Speed_500mb
31 31 32 35 36 30 37 39 27 33 42 45 45 48 53 57 80 61 54 53 52 54
23 23 26 30 29 26 39 51 39 34 33 31 40 41 48 51 60 56 55 49 53 56
16 15 18 21 24 21 24 29 32 32 28 29 29 33 37 40 39 45 56 59 51 50
8 8 12 17 15 17 18 15 15 23 21 27 27 30 26 27 32 38 41 50 51 41
4 5 7 8 12 16 18 16 18 20 21 22 28 24 24 26 33 35 35 34 33 35
1 4 7 9 11 14 12 15 16 18 21 25 32 35 35 35 34 31 31 28 26 26
7 7 9 11 12 14 15 16 17 20 23 28 32 34 36 34 34 35 31 29 29 28
12 12 13 14 17 20 24 30 32 35 38 40 41 40 38 38 38 38 39 39 37 36
21 23 25 27 31 34 37 40 47 50 51 48 48 46 40 41 43 44 43 44 41 38
31 33 35 37 40 45 46 44 46 48 48 55 49 45 41 36 37 38 37 36 35 33
41 39 40 40 42 44 47 43 42 42 41 39 41 37 34 30 29 30 31 29 27 24
33 35 36 34 32 33 34 34 33 33 33 33 34 31 28 24 23 22 23 22 21 19
28 22 24 26 26 25 23 24 25 26 24 24 24 23 21 19 17 16 15 15 13 11
20 19 18 19 19 20 20 20 20 18 18 17 16 16 14 12 11 10 9 9 8 6
Wind_Direction_500mb
276 269 263 255 253 262 267 277 223 230 242 231 230 228 225 232 227 238 235 235 237 236
278 268 258 252 249 250 253 254 259 245 235 229 223 223 224 220 219 229 233 232 235 237
288 265 247 235 240 249 254 245 243 238 235 230 222 220 217 218 216 225 229 227 228 229
290 251 231 213 223 244 243 235 222 238 222 213 224 213 211 216 217 217 224 227 226 230
284 217 207 205 216 224 223 236 248 235 229 202 202 204 201 207 212 209 208 205 210 223
212 176 182 189 194 202 220 229 220 214 208 199 197 187 182 188 187 187 191 193 191 193
107 140 160 166 168 170 176 181 183 177 171 164 160 158 159 162 165 159 158 154 156 152
102 118 132 143 146 147 151 144 139 137 138 136 134 134 138 143 142 142 146 145 140 134
103 114 115 119 123 127 128 129 131 128 126 124 122 123 125 130 130 132 134 132 131 131
94 103 109 113 116 114 111 110 109 113 118 117 116 114 115 120 125 127 129 129 129 129
95 95 101 103 103 103 102 102 108 110 108 109 111 115 121 126 130 132 128 125 122 124
107 110 109 105 103 110 119 124 125 123 125 126 123 125 127 130 132 131 128 126 125 124
119 119 120 119 119 120 120 121 119 122 124 123 126 127 129 133 132 129 126 124 125 126
135 134 133 130 130 131 134 133 130 130 129 130 129 130 131 129 131 131 134 139 140 131
Wind_Speed_850mb
31 31 32 35 36 30 37 39 27 33 42 45 45 48 53 57 80 61 54 53 52 54
23 23 26 30 29 26 39 51 39 34 33 31 40 41 48 51 60 56 55 49 53 56
16 15 18 21 24 21 24 29 32 32 28 29 29 33 37 40 39 45 56 59 51 50
8 8 12 17 15 17 18 15 15 23 21 27 27 30 26 27 32 38 41 50 51 41
4 5 7 8 12 16 18 16 18 20 21 22 28 24 24 26 33 35 35 34 33 35
1 4 7 9 11 14 12 15 16 18 21 25 32 35 35 35 34 31 31 28 26 26
7 7 9 11 12 14 15 16 17 20 23 28 32 34 36 34 34 35 31 29 29 28
12 12 13 14 17 20 24 30 32 35 38 40 41 40 38 38 38 38 39 39 37 36
21 23 25 27 31 34 37 40 47 50 51 48 48 46 40 41 43 44 43 44 41 38
31 33 35 37 40 45 46 44 46 48 48 55 49 45 41 36 37 38 37 36 35 33
41 39 40 40 42 44 47 43 42 42 41 39 41 37 34 30 29 30 31 29 27 24
33 35 36 34 32 33 34 34 33 33 33 33 34 31 28 24 23 22 23 22 21 19
28 22 24 26 26 25 23 24 25 26 24 24 24 23 21 19 17 16 15 15 13 11
20 19 18 19 19 20 20 20 20 18 18 17 16 16 14 12 11 10 9 9 8 6
Wind_Direction_850mb
276 269 263 255 253 262 267 277 223 230 242 231 230 228 225 232 227 238 235 235 237 236
278 268 258 252 249 250 253 254 259 245 235 229 223 223 224 220 219 229 233 232 235 237
288 265 247 235 240 249 254 245 243 238 235 230 222 220 217 218 216 225 229 227 228 229
290 251 231 213 223 244 243 235 222 238 222 213 224 213 211 216 217 217 224 227 226 230
284 217 207 205 216 224 223 236 248 235 229 202 202 204 201 207 212 209 208 205 210 223
212 176 182 189 194 202 220 229 220 214 208 199 197 187 182 188 187 187 191 193 191 193
107 140 160 166 168 170 176 181 183 177 171 164 160 158 159 162 165 159 158 154 156 152
102 118 132 143 146 147 151 144 139 137 138 136 134 134 138 143 142 142 146 145 140 134
103 114 115 119 123 127 128 129 131 128 126 124 122 123 125 130 130 132 134 132 131 131
94 103 109 113 116 114 111 110 109 113 118 117 116 114 115 120 125 127 129 129 129 129
95 95 101 103 103 103 102 102 108 110 108 109 111 115 121 126 130 132 128 125 122 124
107 110 109 105 103 110 119 124 125 123 125 126 123 125 127 130 132 131 128 126 125 124
119 119 120 119 119 120 120 121 119 122 124 123 126 127 129 133 132 129 126 124 125 126
135 134 133 130 130 131 134 133 130 130 129 130 129 130 131 129 131 131 134 139 140 131